Location: Pedholt
(56.0260°N, 10.2097°E)
Time: 22:48:25
(UTC+00:00)

A-11 Canister half - All Passes

Search period start: 28 July 2021 00:00
Search period end: 07 August 2021 00:00
Orbit: 1513 x 1687 km, 47.2° (Epoch: 28 July)

Date Brightness Start Highest point End Pass type
(mag) Time Alt. Az. Time Alt. Az. Time Alt. Az.
28 Jul - 01:02:24 10° W 01:07:28 15° SW 01:12:32 10° SSW visible
28 Jul - 16:23:58 10° S 16:31:17 24° SE 16:38:44 10° E daylight
28 Jul - 18:25:10 10° SW 18:34:24 45° SSE 18:43:49 10° E daylight
28 Jul - 20:28:41 10° WSW 20:38:18 52° S 20:48:01 10° ESE visible
28 Jul - 22:33:03 10° W 22:42:01 37° SSW 22:50:59 10° SSE visible
29 Jul - 00:39:11 10° W 00:44:41 16° SW 00:50:11 10° SSW visible
29 Jul - 16:01:23 10° S 16:08:28 23° SE 16:15:42 10° E daylight
29 Jul - 18:02:21 10° SW 18:11:31 44° SSE 18:20:53 10° E daylight
29 Jul - 20:05:48 10° WSW 20:15:23 52° S 20:25:07 10° ESE visible
29 Jul - 22:10:07 10° W 22:19:09 39° SSW 22:28:11 10° SE visible
30 Jul - 00:16:01 10° W 00:21:53 17° SW 00:27:46 10° SSW visible
30 Jul - 15:38:49 10° S 15:45:39 22° SE 15:52:38 10° E daylight
30 Jul - 17:39:33 10° SW 17:48:38 43° SSE 17:57:56 10° E daylight
30 Jul - 19:42:55 10° WSW 19:52:29 52° S 20:02:13 10° ESE daylight
30 Jul - 21:47:12 10° W 21:56:16 40° SSW 22:05:24 10° SE visible
30 Jul - 23:52:53 10° W 23:59:05 18° SW 00:05:18 10° S visible
31 Jul - 15:16:17 10° S 15:22:52 21° SE 15:29:34 10° E daylight
31 Jul - 17:16:46 10° SW 17:25:46 42° SSE 17:35:01 10° E daylight
31 Jul - 19:20:02 10° WSW 19:29:35 53° S 19:39:18 10° ESE daylight
31 Jul - 21:24:16 10° W 21:33:24 41° SSW 21:42:35 10° SE visible
31 Jul - 23:29:47 10° W 23:36:17 20° SW 23:42:48 10° S visible
01 Aug - 14:53:47 10° S 15:00:04 19° SE 15:06:28 10° E daylight
01 Aug - 16:53:58 10° SW 17:02:54 41° SSE 17:12:04 10° E daylight
01 Aug - 18:57:09 10° WSW 19:06:41 53° S 19:16:25 10° ESE daylight
01 Aug - 21:01:21 10° W 21:10:31 42° SSW 21:19:47 10° SE visible
01 Aug - 23:06:43 10° W 23:13:29 21° SW 23:20:16 10° S visible
02 Aug - 14:31:19 10° S 14:37:16 18° SE 14:43:21 10° E daylight
02 Aug - 16:31:12 10° SW 16:40:02 40° SSE 16:49:06 10° E daylight
02 Aug - 18:34:17 10° WSW 18:43:47 52° S 18:53:29 10° ESE daylight
02 Aug - 20:38:25 10° W 20:47:39 43° SSW 20:56:58 10° SE visible
02 Aug - 22:43:40 10° W 22:50:41 22° SW 22:57:42 10° S visible
03 Aug - 14:08:53 10° SSE 14:14:30 17° SE 14:20:12 10° E daylight
03 Aug - 16:08:26 10° SW 16:17:10 39° SSE 16:26:08 10° E daylight
03 Aug - 18:11:26 10° WSW 18:20:53 52° S 18:30:35 10° ESE daylight
03 Aug - 20:15:31 10° W 20:24:46 44° SSW 20:34:07 10° SE visible
03 Aug - 22:20:37 10° W 22:27:52 23° SW 22:35:08 10° S visible
04 Aug - 13:46:30 10° SSE 13:51:43 16° SE 13:57:00 10° E daylight
04 Aug - 15:45:42 10° SSW 15:54:19 37° SSE 16:03:11 10° E daylight
04 Aug - 17:48:34 10° WSW 17:57:59 52° S 18:07:40 10° ESE daylight
04 Aug - 19:52:36 10° W 20:01:53 45° SSW 20:11:17 10° SE visible
04 Aug - 21:57:36 10° W 22:05:02 24° SW 22:12:31 10° S visible
05 Aug - 13:24:12 10° SSE 13:28:57 15° SE 13:33:46 10° E daylight
05 Aug - 15:22:57 10° SSW 15:31:28 36° SSE 15:40:14 10° E daylight
05 Aug - 17:25:42 10° WSW 17:35:05 52° S 17:44:44 10° ESE daylight
05 Aug - 19:29:42 10° W 19:38:59 46° SSW 19:48:26 10° SE daylight
05 Aug - 21:34:36 10° W 21:42:13 25° SW 21:49:52 10° S visible
06 Aug - 13:01:56 10° SSE 13:06:11 14° SE 13:10:28 10° E daylight
06 Aug - 15:00:14 10° SSW 15:08:37 35° SSE 15:17:16 10° E daylight
06 Aug - 17:02:51 10° WSW 17:12:12 51° S 17:21:49 10° ESE daylight
06 Aug - 19:06:49 10° W 19:16:06 46° SSW 19:25:35 10° SE daylight
06 Aug - 21:11:37 10° W 21:19:23 26° SW 21:27:13 10° S visible
